Location: Warszawa
(52.2500°N, 21.0000°E)
Time: 00:44:30
(UTC+02:00)

Gurwin Techsat 1B - Visible Passes

Search period start: 25 April 2024 00:00
Search period end: 05 May 2024 00:00
Orbit: 811 x 812 km, 98.9° (Epoch: 24 April)

Date Brightness Start Highest point End Pass type
(mag) Time Alt. Az. Time Alt. Az. Time Alt. Az.
25 Apr 9.9 03:41:32 10° NNE 03:46:31 39° E 03:51:28 10° SSE visible
26 Apr 10.5 03:18:39 10° NE 03:23:06 26° E 03:27:32 10° SSE visible
27 Apr 11.0 02:56:05 10° NE 02:59:36 18° E 03:03:07 10° SE visible
28 Apr 11.3 02:34:21 10° ENE 02:36:01 11° E 02:37:41 10° ESE visible
28 Apr 9.1 04:11:39 10° NNE 04:16:58 65° ESE 04:22:15 10° S visible
29 Apr 9.7 03:48:34 10° NNE 03:53:39 44° E 03:58:42 10° S visible
30 Apr 10.4 03:25:38 10° NNE 03:30:16 29° E 03:34:52 10° SSE visible
01 May 10.9 03:02:56 10° NE 03:06:47 20° E 03:10:37 10° SE visible
02 May 11.2 02:40:49 10° ENE 02:43:13 13° E 02:45:37 10° ESE visible
02 May 8.9 04:18:43 10° NNE 04:24:04 73° ESE 04:29:23 10° S visible
03 May 9.5 03:55:36 10° NNE 04:00:46 49° E 04:05:55 10° S visible
04 May 10.2 03:32:36 10° NNE 03:37:24 33° E 03:42:09 10° SSE visible
